Weather History for Northeast Philadelphia, PA

Change the Weather History Date:

Sunday, August 24, 2014

  Actual Average Record
Temperature  
Mean Temperature 72 °F -  
Max Temperature 84 °F 82 °F 96 °F (2012)
Min Temperature 63 °F 64 °F 55 °F (1997)
Cooling Degree Days 8    
Growing Degree Days 22 (Base 50)    
Moisture  
Dew Point 58 °F    
Average Humidity 64    
Maximum Humidity 84    
Minimum Humidity 38    
Precipitation  
Precipitation 0.00 in - - ()
Sea Level Pressure  
Sea Level Pressure 30.14 in    
Wind  
Wind Speed 5 mph (NE)    
Max Wind Speed 12 mph    
Max Gust Speed -    
Visibility 10 miles    
Events      
Averages and records for this station are not official NWS values.
T = Trace of Precipitation, MM = Missing Value Source: NWS Daily Summary

Daily Weather History Graph

Daily Weather History Graph

Search for Another Location

Airport:

Trip Planner

Search our weather history database for the weather conditions in past years. The results will help you decide how hot, cold, wet, or windy it might be!

Date:

Astronomy

Aug. 24, 2014 Rise Set
Actual Time 6:20 AM EDT 7:43 PM EDT
Civil Twilight 5:51 AM EDT 8:12 PM EDT
Nautical Twilight 5:17 AM EDT 8:46 PM EDT
Astronomical Twilight 4:41 AM EDT 9:21 PM EDT
Moon 5:28 AM EDT (8/24) 7:00 PM EDT (8/24)
Length of Visible Light 14h 20m
Length of Day
13h 23m
Waning Crescent, 1% of the Moon is Illuminated
Aug 24
Waning Crescent
Aug 25
New
Sep 2
First Quarter
Sep 8
Full
Sep 15
Last Quarter

Hourly Weather History & Observations

Time (EDT) Temp. Heat Index Dew Point Humidity Pressure Visibility Wind Dir Wind Speed Gust Speed Precip Events Conditions
12:54 AM 66.0 °F - 61.0 °F 84% 30.14 in 10.0 mi Calm Calm - N/A   Overcast
1:54 AM 64.0 °F - 59.0 °F 84% 30.13 in 10.0 mi Calm Calm - N/A   Partly Cloudy
2:54 AM 64.9 °F - 60.1 °F 84% 30.13 in 10.0 mi NNW 3.5 mph - N/A   Overcast
3:54 AM 66.0 °F - 60.1 °F 81% 30.13 in 10.0 mi North 3.5 mph - N/A   Overcast
4:54 AM 64.0 °F - 59.0 °F 84% 30.14 in 10.0 mi NNE 4.6 mph - N/A   Scattered Clouds
5:54 AM 64.0 °F - 59.0 °F 84% 30.14 in 10.0 mi NNE 5.8 mph - N/A   Partly Cloudy
6:54 AM 63.0 °F - 57.9 °F 84% 30.14 in 10.0 mi NE 5.8 mph - N/A   Clear
7:54 AM 68.0 °F - 60.1 °F 76% 30.15 in 10.0 mi NNE 6.9 mph - N/A   Clear
8:54 AM 71.1 °F - 61.0 °F 70% 30.17 in 10.0 mi NNE 5.8 mph - N/A   Clear
9:54 AM 73.9 °F - 59.0 °F 59% 30.17 in 10.0 mi NNE 10.4 mph - N/A   Clear
10:54 AM 75.9 °F - 57.0 °F 52% 30.16 in 10.0 mi NNE 10.4 mph - N/A   Clear
11:54 AM 75.9 °F - 55.0 °F 48% 30.16 in 10.0 mi ENE 8.1 mph - N/A   Partly Cloudy
12:54 PM 79.0 °F - 55.9 °F 45% 30.15 in 10.0 mi ENE 11.5 mph - N/A   Partly Cloudy
1:54 PM 81.0 °F 80.7 °F 55.0 °F 41% 30.14 in 10.0 mi East 6.9 mph - N/A   Mostly Cloudy
2:54 PM 82.9 °F 82.0 °F 55.0 °F 38% 30.12 in 10.0 mi NNE 11.5 mph - N/A   Mostly Cloudy
3:54 PM 80.1 °F 80.0 °F 54.0 °F 40% 30.12 in 10.0 mi NE 8.1 mph - N/A   Overcast
4:54 PM 82.0 °F 81.3 °F 54.0 °F 38% 30.11 in 10.0 mi North 9.2 mph - N/A   Scattered Clouds
5:54 PM 78.1 °F - 55.9 °F 46% 30.12 in 10.0 mi East 11.5 mph - N/A   Overcast
6:54 PM 77.0 °F - 57.0 °F 50% 30.12 in 10.0 mi ESE 8.1 mph - N/A   Mostly Cloudy
7:54 PM 73.0 °F - 57.0 °F 57% 30.13 in 10.0 mi ESE 6.9 mph - N/A   Clear
8:54 PM 71.1 °F - 57.9 °F 63% 30.15 in 10.0 mi SE 3.5 mph - N/A   Clear
9:54 PM 69.1 °F - 57.9 °F 68% 30.16 in 10.0 mi Calm Calm - N/A   Clear
10:54 PM 68.0 °F - 59.0 °F 73% 30.17 in 10.0 mi Calm Calm - N/A   Clear
11:54 PM 64.9 °F - 57.9 °F 78% 30.17 in 10.0 mi Calm Calm - N/A   Clear